View Sortable Currents For Network
ASOSCoCoRaHSCOOPCellular COOPDCPISU Soil Moisture
OtherSCANMy FavoritesBy StateRWISRWIS Surface
RWIS TrafficRWIS SoilBy NWS WFOUSCRN

Sorted by: Valid. The number of observations missing for this month is shown in parenthesis.

Add: SiteID: Station Name: County: Valid: Hydro
24hour Precip Month Precip Snowfall Ratio Snow Depth
IA-BC-9 Winthrop 5.6 NNE Buchanan09:00 AM02.310
IA-BH-26 Waterloo 6.7 E Black Hawk09:00 AM02.060
IA-JN-16 Anamosa 0.6 ESE Jones09:00 AM04.220
IA-HY-9 IA-HY-9 Henry09:00 AM04.340
IA-SR-54 IA-SR-54 Story08:59 AM01.770
IA-WH-1 Decorah 7.9 ENE Winneshiek08:48 AM03.140
IA-HM-4 Webster City 0.8 SSW Hamilton08:43 AM00.380
IA-DL-31 Dallas Center 1.5 E Dallas08:30 AM01.110
IA-DB-26 Dyersville 1.7 ESE Dubuque08:21 AM01.410
IA-CW-5 Fredericksburg 0.3 S Chickasaw08:00 AM03.340
IA-WR-5 Hartford 1.0 ENE Warren08:00 AM01.2800
IA-MC-20 Muscatine 3.0 NE Muscatine08:00 AM04.36 (1)0
IA-DK-6 Lake Park 0.2 N Dickinson08:00 AM02.380
IA-JN-10 Center Junction 2.6 W Jones08:00 AM03.780
IA-PT-13 Council Bluffs 2.1 SSE Pottawattamie08:00 AM0.020.910
IA-JH-20 Coralville 1.4 S Johnson08:00 AM04.1400
IA-PC-8 Fonda 4.5 NNW Pocahontas08:00 AM01.530
IA-JH-27 North Liberty 0.7 SSW Johnson08:00 AM03.990
IA-DV-11 Milton 4.8 SSW Davis08:00 AM04.530
IA-DV-13 Drakesville 7.4 NNW Davis08:00 AM03.41 (1)0
IA-LS-2 Morning Sun 1.7 E Louisa08:00 AM05.270
IA-DC-5 IA-DC-5 Decatur08:00 AM01.850
IA-IA-21 IA-IA-21 Iowa08:00 AM03.120
IA-CH-7 IA-CH-7 Calhoun08:00 AM01.410
IA-LN-63 IA-LN-63 Linn08:00 AM03.10
IA-ST-65 Davenport 4.3 NE Scott08:00 AM05.300
IA-BH-17 Gilbertville 1.0 NW Black Hawk08:00 AM020
IA-LC-12 Chariton 2.0 WSW Lucas08:00 AM02.020
IA-PK-121 Pleasant Hill 3.2 E Polk08:00 AM01.340
IA-DC-6 IA-DC-6 Decatur08:00 AM03.30
IA-LE-20 Fort Madison 4.5 NNW Lee08:00 AM04.370
IA-CY-6 IA-CY-6 Clay07:55 AM02.430
IA-ST-58 IA-ST-58 Scott07:30 AM05.280
IA-CD-11 IA-CD-11 Cedar07:30 AM02.420
IA-PK-130 IA-PK-130 Polk07:10 AM01.340
IA-SR-51 IA-SR-51 Story07:03 AM01.840
IA-CL-3 Murray 0.5 N Clarke07:00 AMT1.6200
IA-SX-14 Orange City 1.2 SSE Sioux07:00 AM03.070
IA-HR-7 Mondamin 1.7 SSW Harrison07:00 AM0.010.62
IA-JH-1 Solon 0.3 ESE Johnson07:00 AM03.620
IA-PK-3 Des Moines 4.5 ENE Polk07:00 AM01.280
IA-WR-7 Indianola 0.8 SSW Warren07:00 AMT1.71
IA-WS-2 Ainsworth 7.4 N Washington07:00 AM05.340
IA-CG-7 Swaledale 0.0 WNW Cerro Gordo07:00 AM02.730
IA-HY-5 Salem 3.1 ESE Henry07:00 AM03.530
IA-LE-11 West Point 7.5 NW Lee07:00 AM03.260
IA-MT-1 Osage 4.7 E Mitchell07:00 AM03.370
IA-DV-14 Drakesville 4.7 WNW Davis07:00 AM03.98 (1)0
IA-DV-15 Bloomfield 9.3 WSW Davis07:00 AM01.970
IA-PK-97 Ankeny 1.5 NNE Polk07:00 AM01.6400
IA-DK-11 Spirit Lake 1.7 SW Dickinson07:00 AM02.17 (1)0
IA-DL-33 Eagle Grove 3.3 SE Dallas07:00 AM000
IA-MR-6 Lovilia 0.6 SSE Monroe07:00 AM02.3600
IA-OB-5 IA-OB-5 O'Brien07:00 AMT0
IA-PK-37 Windsor Heights 0.8 SE Polk07:00 AM01.2700
IA-HY-1 New London 1.5 SW Henry07:00 AM03.730
IA-CN-2 Calamus 2.0 NE Clinton07:00 AM04.50
IA-SR-19 Gilbert 0.2 W Story07:00 AM02.170
IA-FY-3 Waucoma 3.2 S Fayette07:00 AM03.440
IA-CL-2 Osceola 2.5 WSW Clarke07:00 AM02.330
IA-CN-5 Camanche 1.2 W Clinton07:00 AM040
IA-PK-21 Johnston 3.7 NNW Polk07:00 AM01.3900
IA-SR-17 Ames 0.9 ENE Story07:00 AM02.330
IA-CW-2 New Hampton 0.4 SW Chickasaw07:00 AM03.750
IA-DM-7 Burlington 6.5 SSW Des Moines07:00 AM03.990
IA-PK-73 Des Moines 4.1 N Polk07:00 AM01.420
IA-LE-8 Fort Madison 0.9 NE Lee07:00 AM04.090
IA-HD-5 Eldora 1.2 ENE Hardin07:00 AM02.170
IA-DW-6 Hopkinton 5.4 WSW Delaware07:00 AM02.460
IA-CL-4 Murray 1.7 W Clarke07:00 AMT1.6600
IA-PK-83 Altoona 1.5 SSE Polk07:00 AM01.620
IA-PA-5 West Bend 5.4 W Palo Alto07:00 AM0.012.95
IA-WH-5 Decorah 4.9SE Winneshiek07:00 AM01.910
IA-PK-88 Des Moines 5.4 WNW Polk07:00 AM01.350
IA-DB-20 Asbury 0.4 SW Dubuque07:00 AM02.030
IA-DV-3 Bloomfield 8.6 SSW Davis07:00 AM04.730
IA-SR-34 Nevada 4.6 S Story07:00 AM01.46 (1)0
IA-HR-16 Logan 0.8 WNW Harrison07:00 AM0.020.7200
IA-SH-6 Kirkman 1.0 SE Shelby07:00 AM01.080
IA-IA-18 Marengo 3.6 N Iowa07:00 AM03.30
IA-BC-8 Independence 0.9 WNW Buchanan07:00 AM03.080
IA-AL-5 Lansing 4.1 NW Allamakee07:00 AM02.77 (1)0
IA-DV-7 Bloomfield 4.2 WNW Davis07:00 AM04.890
IA-DV-8 Bloomfield 6.5 E Davis07:00 AM05.690
IA-DV-10 Bloomfield 8.4 NNE Davis07:00 AM03.130
IA-AL-6 Postville 5.5 NE Allamakee07:00 AM04.530
IA-WY-7 Allerton 5.1 E Wayne07:00 AM02.390
IA-ML-5 Pacific Junction 3.9 N Mills07:00 AM0.010.82
IA-SR-45 Ames 2.0 WNW Story07:00 AM01.870
IA-BT-16 Shellsburg 2.9 S Benton07:00 AM02.90
IA-LN-53 Robins 0.8 SE Linn07:00 AM03.80
IA-UN-5 Cromwell 0.1 S Union07:00 AM02.020
IA-DW-10 Dundee 1.4 NNE Delaware07:00 AM03.070
IA-PK-125 Urbandale 1.0 NNE Polk07:00 AM01.680
IA-WR-25 Norwalk 1.6 SSW Warren07:00 AMT1.36
IA-JH-34 Iowa City 2.3 E Johnson07:00 AM05.120
IA-BN-15 IA-BN-15 Boone07:00 AM01.990
IA-BH-29 IA-BH-29 Black Hawk07:00 AM01.80
IA-CD-10 Clarence 3.9 S Cedar07:00 AM03.830
IA-DC-8 IA-DC-8 Decatur07:00 AM02.880
IA-SX-12 Orange City 0.4 NNE Sioux07:00 AM04.030
IA-JH-39 IA-JH-39 Johnson07:00 AM04.380
IA-AP-12 Plano 2.6 SSE Appanoose07:00 AMT3.27
IA-SH-8 Earling 2.4 SE Shelby07:00 AM00.760
IA-MA-15 Pella 1.9 NNE Marion07:00 AM02.060
IA-SX-15 Ireton 5.5 N Sioux07:00 AM01.20
IA-GY-6 IA-GY-6 Grundy07:00 AM01.290
IA-AD-2 IA-AD-2 Adams07:00 AM01.780
IA-JH-42 Tiffin 1.2 NE Johnson07:00 AM03.450
IA-PK-139 Ankeny 2.3 NE Polk07:00 AM01.350
IA-LS-5 Wapello 5.4 SE Louisa07:00 AM05.380
IA-TM-4 Vining 0.2 ENE Tama07:00 AM03.40
IA-KS-4 Algona 0.7 SE Kossuth06:58 AM03.030
IA-ST-37 Davenport 0.9 WNW Scott06:48 AM05.950
IA-TY-2 New Market 4.7 N Taylor06:45 AM02.350
IA-AP-9 Numa 1.7 W Appanoose06:38 AM04.510
IA-JF-13 Fairfield 0.4 SE Jefferson06:37 AM04.670
IA-CT-11 Monona 0.2 WNW Clayton06:30 AM04.070
IA-CG-14 IA-CG-14 Cerro Gordo06:28 AM02.110
IA-CL-9 Osceola 2.5 N Clarke06:16 AM02.220
IA-CT-9 IA-CT-9 Clayton06:16 AM03.120
IA-CT-8 Elkader 6.8 WSW Clayton06:15 AM03.140
IA-LN-59 IA-LN-59 Linn06:15 AM02.680
IA-IA-2 Marengo 2.6 SSW Iowa06:00 AM03.160
IA-DL-22 Waukee 1.2 ENE Dallas06:00 AM01.470
IA-LS-3 Wapello 0.2 S Louisa06:00 AM03.690
IA-JH-37 Solon 0.4 WNW Johnson06:00 AM04.410
IA-JH-38 IA-JH-38 Johnson06:00 AM04.090
IA-BT-11 Mount Auburn 2.2 NNW Benton06:00 AM02.030
IA-CN-21 Clinton 2.7 W Clinton06:00 AM00.8700
IA-CN-22 Clinton 1.7 NNW Clinton06:00 AM03.4800
IA-LN-3 Ely 0.5 SE Linn06:00 AM02.910
IA-IA-13 Parnell 0.1 SSW Iowa05:47 AM03.090
IA-PL-9 IA-PL-9 Plymouth05:30 AM04.120
IA-LN-27 Marion 1.7 NNW Linn05:25 AM03.020
IA-WS-7 Wellman 4.0 E Washington05:15 AM04.640
IA-SH-3 Elk Horn 0.2 SSE Shelby05:12 AM0.011.07
IA-ID-4 Arthur 3.7 SSW Ida05:11 AM01.390
IA-VB-3 Farmington 3.5 W Van Buren05:00 AM04.5700
IA-VB-7 Farmington 0.3 NW Van Buren05:00 AM04.3700
IA-VB-8 Farmington 2.4 W Van Buren05:00 AM04.4700
IA-VB-9 Farmington 0.4 NNW Van Buren05:00 AM04.2900
IA-WB-17 Fort Dodge 1.7 NNW Webster05:00 AM01.8700
IA-WB-3 Fort Dodge 1.6 ENE Webster04:00 AM03.390
IA-WT-1 Grafton 0.4 SE Worth24 Apr 2024 07:30 PMM2.06M
IA-LC-16 Russell 0.8 NE Lucas24 Apr 2024 10:00 AMM2.64M
IA-PK-68 Clive 1.2 E Polk24 Apr 2024 10:00 AMM1.51M
IA-CT-12 Monona 0.2 NNW Clayton24 Apr 2024 10:00 AMM3.4 (2)M
IA-DC-7 IA-DC-7 Decatur24 Apr 2024 09:30 AMM2.64M
IA-SR-42 Ames 2.1 WNW Story24 Apr 2024 09:00 AMM0M
IA-PL-10 IA-PL-10 Plymouth24 Apr 2024 08:30 AMM3.45M
IA-FM-1 Sidney 5.1 NNE Fremont24 Apr 2024 08:00 AMM1.44M
IA-PG-3 College Springs 0.3 NNW Page24 Apr 2024 08:00 AMM2.39M
IA-BH-6 Waterloo 1.8 SSE Black Hawk24 Apr 2024 08:00 AMM2.13M
IA-JC-5 Bellevue 0.3 SSW Jackson24 Apr 2024 08:00 AMM0 (2)M
IA-SR-29 Ames 2.5 W Story24 Apr 2024 08:00 AMM1.72M
IA-WY-4 Promise City 0.6 W Wayne24 Apr 2024 08:00 AMM2.92M
IA-SX-9 Orange City 0.4 WNW Sioux24 Apr 2024 08:00 AMM3.67M
IA-MR-5 Albia 2.9 N Monroe24 Apr 2024 08:00 AMM3.37M
IA-DL-38 IA-DL-38 Dallas24 Apr 2024 08:00 AMM1.39M
IA-CD-6 Tipton 0.7 N Cedar24 Apr 2024 07:24 AMM3.99 (1)M
IA-DB-31 IA-DB-31 Dubuque24 Apr 2024 07:20 AMM6M
IA-JH-41 Iowa City 2.7 E Johnson24 Apr 2024 07:09 AMM1.29M
IA-BT-12 Fairfax 4.0 NW Benton24 Apr 2024 07:00 AMM2.51M
IA-BH-3 Cedar Falls 0.4 WNW Black Hawk24 Apr 2024 07:00 AMM1.59M
IA-CS-5 Atlantic 7.1 NNE Cass24 Apr 2024 07:00 AMM1.18M
IA-PT-2 Council Bluffs 3.4 NNE Pottawattamie24 Apr 2024 07:00 AMM0M
IA-IA-6 Amana 4.7 W Iowa24 Apr 2024 07:00 AMM2.52M
IA-KS-5 Burt 0.5 NW Kossuth24 Apr 2024 07:00 AMM2.79M
IA-WB-15 Clare 5.2 WNW Webster24 Apr 2024 07:00 AMM1.77M
IA-KS-6 Swea City 4.0 NW Kossuth24 Apr 2024 07:00 AMM2.39M
IA-LN-49 Cedar Rapids 2.1 NW Linn24 Apr 2024 07:00 AMM2.64M
IA-DK-12 IA-DK-12 Dickinson24 Apr 2024 07:00 AMM3.05M
IA-CG-13 IA-CG-13 Cerro Gordo24 Apr 2024 07:00 AMM3.2M
IA-BH-7 Cedar Falls 1.4 SSE Black Hawk24 Apr 2024 07:00 AMM1.8M
IA-LN-7 Central City 6.7 W Linn24 Apr 2024 07:00 AMM2.54M
IA-ST-3 Park View 0.2 WSW Scott24 Apr 2024 07:00 AMM5.03M
IA-PW-4 Grinnell 0.6 NW Poweshiek24 Apr 2024 07:00 AMM2.17M
IA-SX-7 Sioux Center 2.6 N Sioux24 Apr 2024 07:00 AMM4.3M
IA-CW-3 New Hampton 0.3 NNW Chickasaw24 Apr 2024 07:00 AMM3.59M
IA-CR-7 Manning 0.2 ESE Carroll24 Apr 2024 07:00 AMM1.22M
IA-BN-13 Madrid 5.8 NNW Boone24 Apr 2024 07:00 AMM2.13M
IA-ST-42 Riverdale 0.5 N Scott24 Apr 2024 07:00 AMM5.17M
IA-DV-2 Moulton 3.6 ENE Davis24 Apr 2024 07:00 AMM5.2 (1)M
IA-DV-9 Bloomfield 4.3 SSW Davis24 Apr 2024 07:00 AMM7.01M
IA-WY-10 Allerton 0.8 S Wayne24 Apr 2024 07:00 AMM2.72M
IA-DL-34 Adel 0.6 SE Dallas24 Apr 2024 07:00 AMM1.36M
IA-HW-2 Lime Springs 1.5 N Howard24 Apr 2024 07:00 AMM1.92M
IA-DB-27 Dubuque 1.4 WNW Dubuque24 Apr 2024 07:00 AMM3.95M
IA-BT-19 IA-BT-19 Benton24 Apr 2024 07:00 AMM1.62M
IA-SC-7 IA-SC-7 Sac24 Apr 2024 07:00 AMM0.96M
IA-MD-6 IA-MD-6 Madison24 Apr 2024 07:00 AMM1.52M
IA-ST-59 IA-ST-59 Scott24 Apr 2024 07:00 AMM4.67 (1)M
IA-MC-21 Nichols 2.5 NNW Muscatine24 Apr 2024 07:00 AMM4.99M
IA-WP-13 IA-WP-13 Wapello24 Apr 2024 07:00 AMM5.31M
IA-LC-17 Russell 4.4 SSE Lucas24 Apr 2024 07:00 AMM2.3M
IA-SR-53 IA-SR-53 Story24 Apr 2024 07:00 AMM2.04M
IA-AD-3 Corning 0.3 S Adams24 Apr 2024 07:00 AMM0 (4)M
IA-LN-30 Center Point 0.6 NNW Linn24 Apr 2024 06:00 AMM1.02M
IA-LE-16 Keokuk 3.4 NW Lee24 Apr 2024 06:00 AMM3.9M
IA-JS-10 Sully 0.3 ESE Jasper24 Apr 2024 06:00 AMM1.95M
IA-LN-40 Cedar Rapids 2.8 NNE Linn23 Apr 2024 07:00 PMM1.2 (4)M
IA-LE-21 Fort Madison 7.7 N Lee23 Apr 2024 08:00 AMM3.27M
IA-HN-8 Britt 8.2 NNW Hancock23 Apr 2024 08:00 AMM2.38M
IA-DC-9 IA-DC-9 Decatur23 Apr 2024 08:00 AMM2.08M
IA-DM-15 Yarmouth 1.9 SW Des Moines23 Apr 2024 07:00 AMM4.05M
IA-DM-18 Danville 2.9 W Des Moines23 Apr 2024 07:00 AMM3.58M
IA-SR-2 Ames 1.5 NNE Story23 Apr 2024 07:00 AMM2.05M
IA-HM-1 Webster City 0.5 NW Hamilton23 Apr 2024 07:00 AMM1.87M
IA-CN-17 Charlotte 1.9 WNW Clinton23 Apr 2024 07:00 AMM3.69M
IA-WS-8 Washington 5.8 SW Washington23 Apr 2024 07:00 AMM4.63M
IA-DB-23 Dubuque 1.0 SE Dubuque23 Apr 2024 07:00 AMM4.16M
IA-CL-7 Murray 6.1 NNW Clarke23 Apr 2024 07:00 AMM1.95M
IA-DC-4 IA-DC-4 Decatur23 Apr 2024 07:00 AMM2.58M
IA-LN-62 IA-LN-62 Linn23 Apr 2024 07:00 AMM3.79M
IA-PC-10 Pocahontas 0.5 W Pocahontas23 Apr 2024 07:00 AMM2.79M
IA-JN-20 IA-JN-20 Jones23 Apr 2024 07:00 AMM4.98M
IA-MT-3 Osage 0.6 ENE Mitchell23 Apr 2024 07:00 AMM0M
IA-DL-40 IA-DL-40 Dallas23 Apr 2024 06:41 AMM0.15M
IA-SX-13 Orange City 0.8 W Sioux23 Apr 2024 06:00 AMM3.07M
IA-LC-10 Williamson 0.3 N Lucas23 Apr 2024 06:00 AMM1.97M
IA-JH-14 Swisher 0.4 NNE Johnson22 Apr 2024 08:22 AMM2.07M
IA-BN-19 Boone 1.1 N Boone22 Apr 2024 08:00 AMM2.18M
IA-DK-3 Lake Park 3.2 SSE Dickinson22 Apr 2024 07:00 AMM2.41M
IA-WY-3 Seymour 1.7 W Wayne22 Apr 2024 07:00 AMM3.2M
IA-PK-131 Des Moines 3.7 NW Polk22 Apr 2024 07:00 AMM0.29M
IA-LN-31 Cedar Rapids 2.7 NE Linn22 Apr 2024 06:00 AMM2.62M
IA-AP-11 Melrose 6.8 SSE Appanoose21 Apr 2024 08:00 AMM3.05M
IA-DW-11 Earlville 1.3 WNW Delaware21 Apr 2024 08:00 AMM3.23M
IA-MH-8 New Sharon 6.3 SSE Mahaska21 Apr 2024 07:00 AMM1.84M
IA-LN-61 IA-LN-61 Linn21 Apr 2024 07:00 AMM2.92M
IA-SR-12 Ames 2.1 N Story21 Apr 2024 07:00 AMM1.25M
IA-MH-9 Oskaloosa 7.5 SW Mahaska21 Apr 2024 07:00 AMM1.84M
IA-AL-7 Harpers Ferry 6.4 SSW Allamakee21 Apr 2024 07:00 AMM3.45M
IA-JF-12 Fairfield 5.7 NNE Jefferson21 Apr 2024 07:00 AMM5.6M
IA-ML-6 Glenwood 1.7 WSW Mills20 Apr 2024 09:00 AMM0.7M
IA-JH-22 Coralville 1.3 SE Johnson20 Apr 2024 07:00 AMM4.21M
IA-PK-95 Des Moines 3.7 NW Polk20 Apr 2024 07:00 AMM1.37M
IA-WY-9 Corydon 7.7 SSE Wayne20 Apr 2024 07:00 AMM2.41M
IA-CS-7 Anita 0.6 S Cass20 Apr 2024 07:00 AMM0.92M
IA-PK-108 Des Moines 5.0 NNW Polk19 Apr 2024 10:00 AMM1.09M
IA-DM-8 Burlington 0.8 SSE Des Moines19 Apr 2024 09:19 AMM2.82M
IA-SR-49 IA-SR-49 Story19 Apr 2024 08:30 AMM2.12M
IA-DB-22 Asbury 0.6 S Dubuque19 Apr 2024 08:00 AMM1.26M
IA-LN-24 Palo 4.4 SSW Linn19 Apr 2024 08:00 AMM1.01M
IA-LC-9 Chariton 4.6 E Lucas19 Apr 2024 08:00 AMM2.45M
IA-MA-11 Pella 1.1 ENE Marion19 Apr 2024 08:00 AMM1.81M
IA-JF-14 IA-JF-14 Jefferson19 Apr 2024 08:00 AMM4.84M
IA-MS-7 Marshalltown 0.2 WSW Marshall19 Apr 2024 07:40 AMM2.43M
IA-ST-48 Bettendorf 1.6 W Scott19 Apr 2024 07:30 AMM5.42M
IA-BC-11 Independence 0.6 ESE Buchanan19 Apr 2024 07:12 AMM2.09M
IA-HR-4 Persia 2.0 S Harrison19 Apr 2024 07:00 AMM1.17M
IA-CF-2 Schleswig 0.4 NE Crawford19 Apr 2024 07:00 AMM1.36M
IA-PK-36 Madrid 6.4 S Polk19 Apr 2024 07:00 AMM1.77M
IA-BH-10 Cedar Falls 0.6 N Black Hawk19 Apr 2024 07:00 AMM1.26M
IA-ST-21 Davenport 1.1 WSW Scott19 Apr 2024 07:00 AMM5.6M
IA-DL-17 Dallas Center 3.9 NNE Dallas19 Apr 2024 07:00 AMM0.94M
IA-MD-3 Earlham 2.0 W Madison19 Apr 2024 07:00 AMM1.6M
IA-TM-3 Dysart 3.1 N Tama19 Apr 2024 07:00 AMM1.09M
IA-MC-10 Muscatine 1.4 N Muscatine19 Apr 2024 07:00 AMM5.17M
IA-AL-3 Monona 9.7 N Allamakee19 Apr 2024 07:00 AMM3.07M
IA-WG-6 Eagle Grove 1.3 WSW Wright19 Apr 2024 07:00 AMM2.17M
IA-CD-7 West Branch 2.0 NNW Cedar19 Apr 2024 07:00 AMM4.22M
IA-PK-124 Bondurant 1.0 NE Polk19 Apr 2024 07:00 AMM0.92M
IA-CN-20 De Witt 5.4 ENE Clinton19 Apr 2024 07:00 AMM5.66M
IA-SR-47 IA-SR-47 Story19 Apr 2024 07:00 AMM2.23M
IA-DB-29 Holy Cross 1.8 E Dubuque19 Apr 2024 07:00 AMM2.64M
IA-SR-50 IA-SR-50 Story19 Apr 2024 07:00 AMM2.24M
IA-JN-19 Oxford Junction 2.9 ENE Jones19 Apr 2024 07:00 AMM4.27M
IA-AL-10 Waukon 0.3 ENE Allamakee19 Apr 2024 07:00 AMM3.23M
IA-PK-115 Polk City 1.0 N Polk19 Apr 2024 06:40 AMM1.81M
IA-LE-17 Hillsboro 5.8 SE Lee19 Apr 2024 06:30 AMM2.9M
IA-DL-32 Clive 4.7 WNW Dallas19 Apr 2024 06:30 AMM1.83M
IA-DB-21 Rickardsville 0.2 W Dubuque19 Apr 2024 06:00 AMM2.25M
IA-JH-29 Solon 4.2 SSW Johnson19 Apr 2024 06:00 AMM4.58M
IA-LN-54 Cedar Rapids 4.1 NW Linn19 Apr 2024 06:00 AMM0.72M
IA-BN-3 Ogden 1.6 SE Boone19 Apr 2024 04:00 AMM1.56M
IA-CH-8 Rockwell City 0.1 NE Calhoun18 Apr 2024 07:30 PMM1.76M
IA-BH-28 Hudson 1.1 SSE Black Hawk18 Apr 2024 06:24 PMM1.18M
IA-DB-32 Farley 0.7 S Dubuque18 Apr 2024 06:00 PMM0.45M
IA-MD-5 Truro 0.3 WNW Madison18 Apr 2024 05:00 PMM1.08M
IA-WB-12 Fort Dodge 5.6 WNW Webster18 Apr 2024 02:17 PMM2.12M
IA-TY-4 Bedford 0.5 NW Taylor18 Apr 2024 10:30 AMM2.61M
IA-HR-20 Portsmouth 4.8 W Harrison18 Apr 2024 09:30 AMM1.24M
IA-BV-1 Storm Lake 3.1 S Buena Vista18 Apr 2024 09:00 AMM1.91M
IA-CR-12 IA-CR-12 Carroll18 Apr 2024 09:00 AMM1.28M
IA-LY-10 Rock Rapids 7.7 WNW Lyon18 Apr 2024 08:00 AMM2.15M
IA-PT-18 Council Bluffs 1.5 E Pottawattamie18 Apr 2024 08:00 AMM0.61M
IA-SC-4 Odebolt 4.8 NNW Sac18 Apr 2024 07:51 AMM1.73M
IA-WR-15 Norwalk 1.7 SSE Warren18 Apr 2024 07:00 AMM1.21M
IA-DL-18 Waukee 0.6 W Dallas18 Apr 2024 07:00 AMM0.84M
IA-HR-13 Missouri Valley 6.3 ENE Harrison18 Apr 2024 07:00 AMM0.81M
IA-PL-5 Le Mars 0.9 SE Plymouth18 Apr 2024 07:00 AMM4M
IA-PK-93 Johnston 2.6 W Polk18 Apr 2024 07:00 AMM1.24M
IA-PK-94 Polk City 0.8 W Polk18 Apr 2024 07:00 AMM1.06M
IA-CG-11 Mason City 1.4 SSW Cerro Gordo18 Apr 2024 07:00 AMM1.74M
IA-LC-7 Lucas 2.1 NNW Lucas18 Apr 2024 07:00 AMM1.99M
IA-LY-11 Rock Rapids 5.6 W Lyon18 Apr 2024 07:00 AMM3.5M
IA-CD-8 Tipton 0.3 ESE Cedar18 Apr 2024 07:00 AMM4.23M
IA-KS-7 Algona 2.5 S Kossuth18 Apr 2024 07:00 AMM2.07M
IA-OS-3 IA-OS-3 Osceola18 Apr 2024 07:00 AMM2.67M
IA-HB-5 Humboldt 4.2 S Humboldt18 Apr 2024 07:00 AMM2.35M
IA-CW-7 Fredericksburg 0.4 NNE Chickasaw18 Apr 2024 07:00 AMM2.69M
IA-WP-3 Ottumwa 1.5 SW Wapello18 Apr 2024 06:30 AMM1.1M
IA-LY-9 Larchwood 1.2 NNE Lyon18 Apr 2024 06:15 AMM3.71M
IA-HR-10 Missouri Valley 2.1 NNE Harrison18 Apr 2024 06:00 AMM0.58M
IA-PK-98 Des Moines 5.3 NW Polk17 Apr 2024 03:30 PMM0.7M
IA-MN-2 Blencoe 0.9 NNW Monona17 Apr 2024 08:00 AMM0.65M
IA-GT-1 Jamaica 3.2 S Guthrie17 Apr 2024 07:00 AMM0.71M
IA-MC-23 Muscatine 1.7 N Muscatine17 Apr 2024 07:00 AMM1.77M
IA-DB-16 Peosta 2.9 E Dubuque17 Apr 2024 07:00 AMM1.53M
IA-DL-26 Dallas Center 4.1 ENE Dallas17 Apr 2024 07:00 AMM1.67M
IA-SR-36 Nevada 5.1 WSW Story17 Apr 2024 07:00 AMM1.17M
IA-WR-22 Prole 1.5 ENE Warren17 Apr 2024 07:00 AMM0.46M
IA-WH-8 Fort Atkinson 2.6 W Winneshiek17 Apr 2024 07:00 AMM2.66M
IA-WY-13 Allerton 4.5 WSW Wayne17 Apr 2024 07:00 AMM0.45M
IA-GN-4 Churdan 1.0 S Greene17 Apr 2024 06:00 AMM0.6M
IA-WG-7 Eagle Grove 0.7 W Wright17 Apr 2024 05:56 AMM0.96M
IA-LE-19 IA-LE-19 Lee16 Apr 2024 08:00 AMM0.7M
IA-HR-14 Blencoe 5.4 S Harrison16 Apr 2024 07:00 AMM0.83M
IA-DL-28 Waukee 3.0 SSW Dallas16 Apr 2024 07:00 AMM0.33M
IA-CN-24 IA-CN-24 Clinton16 Apr 2024 05:00 AMM0 (1)M
IA-LE-3 Montrose 4.5 NNW Lee15 Apr 2024 06:45 PMM3.13M